Location: Eastview
(35.0756°N, 88.5453°W)
Time: 06:23:01
(UTC+00:00)

Cosmos 1980 Rocket - Pass Details

Date: 22 November 2019
Orbit: 828 x 851 km, 71.0° (Epoch: 15 December)

Event Time Altitude Azimuth Distance (km) Brightness Sun altitude
Rises 23:29:03 0° 214° (SW) 3,380 6.3 -9.3°
Reaches altitude 10° 23:31:33 10° 219° (SW) 2,453 5.6 -9.7°
Maximum altitude 23:37:00 50° 295° (WNW) 1,065 3.1 -10.8°
Drops below altitude 10° 23:42:32 10° 10° (N) 2,479 4.4 -11.9°
Sets 23:45:05 0° 16° (NNE) 3,420 5.0 -12.4°
